Showing default

LING QIAO, 40136

Orbit data source: Space-Track

LING QIAO, 40136 is a payload satellite owned by Tsinghua (CN) in SSO that was launched on Thu, 04 Sep 2014 UTC via a CHANG ZHENG 2D launch vehicle from the Jiuquan Satellite Launch Center, China (JSC). Payload-class satellites include a variety of spacecraft equipped with specific instruments for various scientific and technological missions. These include communications satellites like Starlink; space stations such as the ISS; scientific satellites like the Hubble; Earth observation satellites from companies like Planet Labs, Umbra, and HawkEye 360; GPS; miniature CubeSats for education and research; and military/defense satellites.

Loading next visibility...
Identifier
40136, 2014-051A
Orbit
SSO
Country
Flag of CNCN / PRC
Related business
Manufacturer
Tsinghua
Mission
Operational Amateur Communications
Bus & Motor
LQ, Unknown motor
Mass
135 kg wet, 135 kg dry
Launch date (UTC)
2014-09-04 (11 years ago)
Launch vehicle
CHANG ZHENG 2D
Launch site
Jiuquan Satellite Launch Center, China (JSC)
Object type
Payload
Rocket body
Debris
Shape & HBR
Box, 1.0 m
Radar Cross Section
1.500 m², Medium (>0.1 m² and < 1m²)

Expand to show TLE details & history
Last TLE update: 14 hours ago

TLE from 14 hours ago
0 LING QIAO
1 40136U 14051A   25338.78541041  .00000155  00000-0  77007-4 0  9992
2 40136  98.7009 335.5011 0021315  25.6558 334.5677 14.30226366587211
Epoch: 2025-12-04T18:50Z
TLE epoch observation values (Epoch: 2025-12-04T18:50:59.459Z)
Latitude
-0.00001°
Longitude
-21.08351°
Altitude
780.106 km
Speed
7.471 km/s
True Right ascension
22h 22m 00s
True Declination
0° 00' 00"
Sunlit
Object was in daylight at epoch
Visualization orbit readout
Latitude
Unknown
Longitude
Unknown
Altitude
Unknown
Speed
Unknown
Apparent Right ascension
Unknown
Apparent Declination
Unknown
Sunlit
N/A
Visualization observer readout
Local Sidereal Time
06:43:38
Azimuth
Unknown
Elevation
Unknown
Doppler factor
Unknown
Orbital elements
Apogee altitude
803.394 km
Perigee altitude
772.844 km
Semi-major axis
7,166.256 km
Eccentricity
0.00213
Inclination
98.7009°
RAAN
335.5011°
Arg. of periapsis
25.6558°
True anomaly
334.46255°
Mean anomaly
334.5677°
Eccentric anomaly
334.51515°
Mean motion
3.57771 °/min
Orbital period
100.62 mins
BSTAR
0.000077007
Loading maneuver chart data...
Computing Atmospheric mass density...
Loading historical data...
Loading historical data...
Loading historical data...
Loading historical data...
Loading historical data...
Loading historical data...
Loading historical data...
Other satellites on launch #51 in the year 2014 (2014-09-04 UTC)

Documentation

Showing up to 5 results
|